New Orleans Lakefront, LA

6:17 PM CDT on September 22, 2019 (GMT -0500)
Lakefront

Weather History for KNEW - July, 2019

Change the Weather History Date:

Thursday, July 18, 2019

  Actual Average Record
Temperature  
Mean Temperature 86 °F 83 °F  
Max Temperature 93 °F 91 °F 97 °F (2000)
Min Temperature 78 °F 75 °F 66 °F (1967)
Degree Days  
Heating Degree Days 0 0  
Month to date heating degree days 0 0  
Since 1 June heating degree days 0 0  
Since 1 July heating degree days 0 0  
Cooling Degree Days 21 18  
Month to date cooling degree days 365 324  
Year to date cooling degree days 1760 1438  
Since 1 June cooling degree days 945 819  
Growing Degree Days 34 (Base 50)    
Moisture  
Dew Point 77 °F    
Average Humidity 77    
Maximum Humidity 91    
Minimum Humidity 63    
Precipitation  
Precipitation 0.45 in 0.18 in 1.60 in (1991)
Month to date precipitation 4.11 3.64  
Year to date precipitation 35.46 35.94  
Snow  
Snow 0.00 in - - ()
Month to date snowfall 0.0  
Since 1 June snowfall 0.0  
Since 1 July snowfall 0.0  
Snow Depth 0.00 in    
Sea Level Pressure  
Sea Level Pressure 30.06 in    
Wind  
Wind Speed 5 mph (South)    
Max Wind Speed 17 mph    
Max Gust Speed 17 mph    
Visibility 8 miles    
Events Rain , Thunderstorm    
T = Trace of Precipitation, MM = Missing Value Source: NWS Daily Summary

Daily Weather History Graph

Daily Weather History Graph

Search for Another Location

Airport or City:

Astronomy

Jul. 18, 2019 Rise Set
Actual Time 6:10 AM CDT 8:01 PM CDT
Civil Twilight 5:43 AM CDT 8:28 PM CDT
Nautical Twilight 5:11 AM CDT 9:00 PM CDT
Astronomical Twilight 4:37 AM CDT 9:34 PM CDT
Moon 9:32 PM CDT (7/18) 7:37 AM CDT (7/18)
Length of Visible Light 14h 44m
Length of Day
13h 50m
Full, 97% of the Moon is Illuminated
Jul 18
Full
Jul 24
Last Quarter
Jul 31
New
Aug 7
First Quarter
Aug 15
Full

Hourly Weather History & Observations

Time (CDT) Temp. Heat Index Dew Point Humidity Pressure Visibility Wind Dir Wind Speed Gust Speed Precip Events Conditions
12:53 AM 82.0 °F 89.4 °F 75.9 °F 82% 30.06 in 10.0 mi South 4.6 mph - N/A   Clear
1:53 AM 82.9 °F 90.8 °F 75.9 °F 79% 30.06 in 10.0 mi SW 3.5 mph - N/A   Clear
2:53 AM 82.9 °F 91.8 °F 77.0 °F 82% 30.06 in 9.0 mi West 3.5 mph - N/A   Clear
3:53 AM 82.9 °F 91.8 °F 77.0 °F 82% 30.05 in 10.0 mi WSW 4.6 mph - N/A   Clear
4:53 AM 82.0 °F 91.0 °F 78.1 °F 88% 30.06 in 10.0 mi WSW 4.6 mph - N/A   Clear
5:53 AM 82.0 °F 91.0 °F 78.1 °F 88% 30.06 in 10.0 mi SW 3.5 mph - N/A   Clear
6:53 AM 82.0 °F 91.6 °F 79.0 °F 90% 30.06 in 9.0 mi Calm Calm - N/A   Clear
7:53 AM 84.0 °F 94.8 °F 78.1 °F 82% 30.07 in 9.0 mi Calm Calm - N/A   Partly Cloudy
8:53 AM 84.9 °F 96.6 °F 78.1 °F 80% 30.08 in 9.0 mi WNW 3.5 mph - N/A   Clear
9:53 AM 86.0 °F 99.3 °F 79.0 °F 79% 30.07 in 10.0 mi NW 4.6 mph - N/A   Clear
10:53 AM 88.0 °F 103.1 °F 79.0 °F 75% 30.08 in 10.0 mi North 8.1 mph - N/A   Mostly Cloudy
11:09 AM 87.1 °F 99.8 °F 78.1 °F 74% 30.10 in 10.0 mi North 8.1 mph - N/A   Mostly Cloudy
11:16 AM 89.1 °F 104.4 °F 79.0 °F 72% 30.10 in 10.0 mi North 9.2 mph - N/A   Mostly Cloudy
11:44 AM 84.0 °F 92.6 °F 75.9 °F 76% 30.10 in 1.8 mi ENE 4.6 mph - 0.04 in Rain Heavy Rain
11:51 AM 84.2 °F 94.1 °F 77.0 °F 79% 30.10 in 3.0 mi East 9.2 mph - 0.06 in Rain Rain
11:53 AM 82.9 °F 90.8 °F 75.9 °F 79% 30.09 in 3.0 mi East 8.1 mph - 0.06 in Rain Rain
12:53 PM 86.0 °F 98.3 °F 78.1 °F 77% 30.07 in 10.0 mi NE 8.1 mph - 0.01 in   Clear
1:34 PM 86.0 °F 98.3 °F 78.1 °F 77% 30.09 in 9.0 mi SSE 13.8 mph - N/A Thunderstorm Thunderstorm
1:53 PM 82.0 °F 90.2 °F 77.0 °F 85% 30.06 in 4.0 mi South 16.1 mph 21.9 mph 0.02 in Rain , Thunderstorm Light Thunderstorms and Rain
2:53 PM 78.1 °F - 73.0 °F 84% 30.05 in 5.0 mi SE 10.4 mph - 0.03 in Rain , Thunderstorm Light Thunderstorms and Rain
3:07 PM 79.0 °F - 75.0 °F 88% 30.06 in 10.0 mi ESE 8.1 mph - 0.01 in Rain Light Rain
3:53 PM 81.0 °F 87.3 °F 75.9 °F 85% 30.03 in 10.0 mi Calm Calm - 0.01 in   Clear
4:53 PM 86.0 °F 99.3 °F 79.0 °F 79% 30.01 in 10.0 mi Variable 4.6 mph - N/A   Clear
5:53 PM 88.0 °F 98.5 °F 75.9 °F 67% 30.00 in 10.0 mi SSE 10.4 mph - N/A   Clear
6:53 PM 88.0 °F 97.5 °F 75.0 °F 65% 30.00 in 10.0 mi SSW 6.9 mph - N/A   Clear
8:53 PM 84.0 °F 91.9 °F 75.0 °F 74% 30.01 in 10.0 mi South 5.8 mph - N/A   Clear